M I D A S
Marine Information and Data Acquisition System
Tripno 1210 of the Zeeleeuw from 2007-01-31 12:43:33 to 2007-01-31 15:22:51
Back to CruiseResearch ActivitiesStationsMapUnderway DataData graphs

EquipmentUnitsComments
TimeDGPSUTC
LatitudeDGPSDM.mWGS84
LongitudeDGPSDM.mWGS84
SpeedMeteo Stationm/sRelative wind speed
DirectionMeteo StationdegRelative wind direction
TemperatureMeteo Stationdeg CelciusAir temperature
PressureMeteo StationPaAtmospheric pressure
HumidityMeteo Station%Relative humidity
Missing or incorrect values are displayed as -999
Metereological data collected by the RV Zeeleeuw from 2007-01-31 07:54:49 to 2007-01-31 15:30:39
Time Latitude Longitude Speed Direction Temperature Pressure Humidity
2007-01-31 07:55 51°13.599 2°56.094 -999 -999 -999 -999 -999
2007-01-31 07:56 51°13.598 2°56.094 -999 -999 -999 -999 -999
2007-01-31 07:57 51°13.599 2°56.094 -999 -999 -999 -999 -999
2007-01-31 07:58 51°13.599 2°56.093 -999 -999 -999 -999 -999
2007-01-31 07:59 51°13.599 2°56.094 -999 -999 -999 -999 -999
2007-01-31 08:00 51°13.599 2°56.094 -999 -999 -999 -999 -999
2007-01-31 08:01 51°13.599 2°56.094 -999 -999 -999 -999 -999
2007-01-31 08:02 51°13.598 2°56.095 -999 -999 -999 -999 -999
2007-01-31 08:03 51°13.598 2°56.095 -999 -999 -999 -999 -999
2007-01-31 08:04 51°13.598 2°56.094 -999 -999 -999 -999 -999
2007-01-31 08:05 51°13.598 2°56.095 -999 -999 -999 -999 -999
2007-01-31 08:06 51°13.597 2°56.096 -999 -999 -999 -999 -999
2007-01-31 08:07 51°13.596 2°56.097 -999 -999 -999 -999 -999
2007-01-31 08:08 51°13.596 2°56.097 -999 -999 -999 -999 -999
2007-01-31 08:09 51°13.597 2°56.097 -999 -999 -999 -999 -999
2007-01-31 08:10 51°13.597 2°56.097 -999 -999 -999 -999 -999
2007-01-31 08:11 51°13.598 2°56.096 -999 -999 -999 -999 -999
2007-01-31 08:12 51°13.599 2°56.096 -999 -999 -999 -999 -999
2007-01-31 08:13 51°13.6 2°56.095 -999 -999 -999 -999 -999
2007-01-31 08:14 51°13.6 2°56.095 -999 -999 -999 -999 -999
2007-01-31 08:15 51°13.601 2°56.094 -999 -999 -999 -999 -999
2007-01-31 08:16 51°13.601 2°56.094 -999 -999 -999 -999 -999
2007-01-31 08:17 51°13.6 2°56.094 -999 -999 -999 -999 -999
2007-01-31 08:18 51°13.6 2°56.094 -999 -999 -999 -999 -999
2007-01-31 08:19 51°13.6 2°56.094 -999 -999 -999 -999 -999
2007-01-31 08:20 51°13.6 2°56.093 -999 -999 -999 -999 -999
2007-01-31 08:21 51°13.599 2°56.093 -999 -999 -999 -999 -999
2007-01-31 08:22 51°13.599 2°56.093 -999 -999 -999 -999 -999
2007-01-31 08:23 51°13.599 2°56.093 -999 -999 -999 -999 -999
2007-01-31 08:24 51°13.6 2°56.093 -999 -999 -999 -999 -999
2007-01-31 08:25 51°13.599 2°56.095 -999 -999 -999 -999 -999
2007-01-31 08:26 51°13.598 2°56.095 -999 -999 -999 -999 -999
2007-01-31 08:27 51°13.599 2°56.095 -999 -999 -999 -999 -999
2007-01-31 08:28 51°13.599 2°56.095 -999 -999 -999 -999 -999
2007-01-31 08:29 51°13.599 2°56.096 -999 -999 -999 -999 -999
2007-01-31 08:30 51°13.598 2°56.096 -999 -999 -999 -999 -999
2007-01-31 08:31 51°13.597 2°56.096 -999 -999 -999 -999 -999
2007-01-31 08:32 51°13.597 2°56.096 -999 -999 -999 -999 -999
2007-01-31 08:33 51°13.597 2°56.097 -999 -999 -999 -999 -999
2007-01-31 08:34 51°13.597 2°56.097 -999 -999 -999 -999 -999
2007-01-31 08:35 51°13.597 2°56.097 -999 -999 -999 -999 -999
2007-01-31 08:36 51°13.597 2°56.097 -999 -999 -999 -999 -999
2007-01-31 08:37 51°13.597 2°56.096 -999 -999 -999 -999 -999
2007-01-31 08:38 51°13.597 2°56.097 -999 -999 -999 -999 -999
2007-01-31 08:39 51°13.597 2°56.096 -999 -999 -999 -999 -999
2007-01-31 08:40 51°13.596 2°56.097 -999 -999 -999 -999 -999
2007-01-31 08:41 51°13.596 2°56.097 -999 -999 -999 -999 -999
2007-01-31 08:42 51°13.597 2°56.096 -999 -999 -999 -999 -999
2007-01-31 08:43 51°13.606 2°56.064 -999 -999 -999 -999 -999
2007-01-31 08:44 51°13.633 2°55.974 -999 -999 -999 -999 -999
2007-01-31 08:45 51°13.667 2°55.866 -999 -999 -999 -999 -999
2007-01-31 08:46 51°13.683 2°55.778 -999 -999 -999 -999 -999
2007-01-31 08:47 51°13.683 2°55.728 -999 -999 -999 -999 -999
2007-01-31 08:48 51°13.7 2°55.73 -999 -999 -999 -999 -999
2007-01-31 08:49 51°13.758 2°55.689 -999 -999 -999 -999 -999
2007-01-31 08:50 51°13.868 2°55.606 -999 -999 -999 -999 -999
2007-01-31 08:51 51°14.001 2°55.515 -999 -999 -999 -999 -999
2007-01-31 08:52 51°14.141 2°55.406 -999 -999 -999 -999 -999
2007-01-31 08:53 51°14.265 2°55.246 -999 -999 -999 -999 -999
2007-01-31 08:54 51°14.389 2°55.043 -999 -999 -999 -999 -999
2007-01-31 08:55 51°14.511 2°54.823 -999 -999 -999 -999 -999
2007-01-31 08:56 51°14.616 2°54.571 -999 -999 -999 -999 -999
2007-01-31 08:57 51°14.708 2°54.32 -999 -999 -999 -999 -999
2007-01-31 08:58 51°14.783 2°54.081 -999 -999 -999 -999 -999
2007-01-31 08:59 51°14.788 2°53.84 -999 -999 -999 -999 -999
2007-01-31 09:00 51°14.784 2°53.598 -999 -999 -999 -999 -999
2007-01-31 09:01 51°14.781 2°53.358 -999 -999 -999 -999 -999
2007-01-31 09:02 51°14.773 2°53.118 -999 -999 -999 -999 -999
2007-01-31 09:03 51°14.733 2°52.882 -999 -999 -999 -999 -999
2007-01-31 09:04 51°14.718 2°52.634 -999 -999 -999 -999 -999
2007-01-31 09:05 51°14.711 2°52.391 -999 -999 -999 -999 -999
2007-01-31 09:06 51°14.703 2°52.144 -999 -999 -999 -999 -999
2007-01-31 09:07 51°14.698 2°51.902 -999 -999 -999 -999 -999
2007-01-31 09:08 51°14.69 2°51.664 -999 -999 -999 -999 -999
2007-01-31 09:09 51°14.685 2°51.435 -999 -999 -999 -999 -999
2007-01-31 09:10 51°14.669 2°51.333 -999 -999 -999 -999 -999
2007-01-31 09:11 51°14.664 2°51.353 -999 -999 -999 -999 -999
2007-01-31 09:12 51°14.661 2°51.383 -999 -999 -999 -999 -999
2007-01-31 09:13 51°14.656 2°51.414 -999 -999 -999 -999 -999
2007-01-31 09:14 51°14.648 2°51.443 -999 -999 -999 -999 -999
2007-01-31 09:15 51°14.64 2°51.471 -999 -999 -999 -999 -999
2007-01-31 09:16 51°14.635 2°51.501 -999 -999 -999 -999 -999
2007-01-31 09:17 51°14.63 2°51.533 -999 -999 -999 -999 -999
2007-01-31 09:18 51°14.627 2°51.568 -999 -999 -999 -999 -999
2007-01-31 09:19 51°14.625 2°51.603 -999 -999 -999 -999 -999
2007-01-31 09:20 51°14.623 2°51.64 -999 -999 -999 -999 -999
2007-01-31 09:21 51°14.621 2°51.676 -999 -999 -999 -999 -999
2007-01-31 09:22 51°14.619 2°51.714 -999 -999 -999 -999 -999
2007-01-31 09:23 51°14.616 2°51.749 -999 -999 -999 -999 -999
2007-01-31 09:24 51°14.612 2°51.785 -999 -999 -999 -999 -999
2007-01-31 09:25 51°14.609 2°51.822 -999 -999 -999 -999 -999
2007-01-31 09:26 51°14.606 2°51.858 -999 -999 -999 -999 -999
2007-01-31 09:27 51°14.603 2°51.897 -999 -999 -999 -999 -999
2007-01-31 09:28 51°14.601 2°51.933 -999 -999 -999 -999 -999
2007-01-31 09:29 51°14.598 2°51.971 -999 -999 -999 -999 -999
2007-01-31 09:30 51°14.593 2°52.008 -999 -999 -999 -999 -999
2007-01-31 09:31 51°14.589 2°52.044 -999 -999 -999 -999 -999
2007-01-31 09:32 51°14.587 2°52.08 -999 -999 -999 -999 -999
2007-01-31 09:33 51°14.583 2°52.12 -999 -999 -999 -999 -999
2007-01-31 09:34 51°14.578 2°52.159 -999 -999 -999 -999 -999
2007-01-31 09:35 51°14.575 2°52.195 -999 -999 -999 -999 -999
2007-01-31 09:36 51°14.573 2°52.236 -999 -999 -999 -999 -999
2007-01-31 09:37 51°14.573 2°52.28 -999 -999 -999 -999 -999
2007-01-31 09:38 51°14.575 2°52.325 -999 -999 -999 -999 -999
2007-01-31 09:39 51°14.574 2°52.371 -999 -999 -999 -999 -999
2007-01-31 09:40 51°14.574 2°52.418 -999 -999 -999 -999 -999
2007-01-31 09:41 51°14.576 2°52.464 -999 -999 -999 -999 -999
2007-01-31 09:42 51°14.553 2°52.499 -999 -999 -999 -999 -999
2007-01-31 09:43 51°14.539 2°52.44 -999 -999 -999 -999 -999
2007-01-31 09:44 51°14.628 2°52.284 -999 -999 -999 -999 -999
2007-01-31 09:45 51°14.747 2°52.011 -999 -999 -999 -999 -999
2007-01-31 09:46 51°14.868 2°51.74 -999 -999 -999 -999 -999
2007-01-31 09:47 51°14.994 2°51.468 -999 -999 -999 -999 -999
2007-01-31 09:48 51°15.121 2°51.197 -999 -999 -999 -999 -999
2007-01-31 09:49 51°15.246 2°50.931 -999 -999 -999 -999 -999
2007-01-31 09:50 51°15.346 2°50.688 -999 -999 -999 -999 -999
2007-01-31 09:51 51°15.418 2°50.504 -999 -999 -999 -999 -999
2007-01-31 09:52 51°15.416 2°50.463 -999 -999 -999 -999 -999
2007-01-31 09:53 51°15.418 2°50.505 -999 -999 -999 -999 -999
2007-01-31 09:54 51°15.427 2°50.562 -999 -999 -999 -999 -999
2007-01-31 09:55 51°15.434 2°50.62 -999 -999 -999 -999 -999
2007-01-31 09:56 51°15.441 2°50.681 -999 -999 -999 -999 -999
2007-01-31 09:57 51°15.447 2°50.739 -999 -999 -999 -999 -999
2007-01-31 09:58 51°15.452 2°50.796 -999 -999 -999 -999 -999
2007-01-31 09:59 51°15.455 2°50.853 -999 -999 -999 -999 -999
2007-01-31 10:00 51°15.458 2°50.91 -999 -999 -999 -999 -999
2007-01-31 10:01 51°15.437 2°50.959 -999 -999 -999 -999 -999
2007-01-31 10:02 51°15.365 2°50.948 -999 -999 -999 -999 -999
2007-01-31 10:03 51°15.39 2°50.839 -999 -999 -999 -999 -999
2007-01-31 10:04 51°15.476 2°50.656 -999 -999 -999 -999 -999
2007-01-31 10:05 51°15.541 2°50.426 -999 -999 -999 -999 -999
2007-01-31 10:06 51°15.606 2°50.189 -999 -999 -999 -999 -999
2007-01-31 10:07 51°15.673 2°49.954 -999 -999 -999 -999 -999
2007-01-31 10:08 51°15.741 2°49.722 -999 -999 -999 -999 -999
2007-01-31 10:09 51°15.807 2°49.491 -999 -999 -999 -999 -999
2007-01-31 10:10 51°15.863 2°49.253 -999 -999 -999 -999 -999
2007-01-31 10:11 51°15.92 2°49.013 -999 -999 -999 -999 -999
2007-01-31 10:12 51°15.976 2°48.775 -999 -999 -999 -999 -999
2007-01-31 10:13 51°15.988 2°48.529 -999 -999 -999 -999 -999
2007-01-31 10:14 51°15.996 2°48.287 -999 -999 -999 -999 -999
2007-01-31 10:15 51°15.96 2°48.203 -999 -999 -999 -999 -999
2007-01-31 10:16 51°15.967 2°48.258 -999 -999 -999 -999 -999
2007-01-31 10:17 51°15.986 2°48.318 -999 -999 -999 -999 -999
2007-01-31 10:18 51°15.997 2°48.378 -999 -999 -999 -999 -999
2007-01-31 10:19 51°15.996 2°48.442 -999 -999 -999 -999 -999
2007-01-31 10:20 51°15.951 2°48.476 -999 -999 -999 -999 -999
2007-01-31 10:21 51°15.929 2°48.402 -999 -999 -999 -999 -999
2007-01-31 10:22 51°15.925 2°48.284 -999 -999 -999 -999 -999
2007-01-31 10:23 51°15.919 2°48.203 -999 -999 -999 -999 -999
2007-01-31 10:24 51°15.902 2°48.165 -999 -999 -999 -999 -999
2007-01-31 10:25 51°15.876 2°48.122 -999 -999 -999 -999 -999
2007-01-31 10:26 51°15.845 2°48.06 -999 -999 -999 -999 -999
2007-01-31 10:27 51°15.817 2°47.992 -999 -999 -999 -999 -999
2007-01-31 10:28 51°15.792 2°47.925 -999 -999 -999 -999 -999
2007-01-31 10:29 51°15.772 2°47.847 -999 -999 -999 -999 -999
2007-01-31 10:30 51°15.753 2°47.773 -999 -999 -999 -999 -999
2007-01-31 10:31 51°15.735 2°47.699 -999 -999 -999 -999 -999
2007-01-31 10:32 51°15.715 2°47.625 -999 -999 -999 -999 -999
2007-01-31 10:33 51°15.693 2°47.555 -999 -999 -999 -999 -999
2007-01-31 10:34 51°15.668 2°47.485 -999 -999 -999 -999 -999
2007-01-31 10:35 51°15.644 2°47.409 -999 -999 -999 -999 -999
2007-01-31 10:36 51°15.619 2°47.337 -999 -999 -999 -999 -999
2007-01-31 10:37 51°15.594 2°47.278 -999 -999 -999 -999 -999
2007-01-31 10:38 51°15.57 2°47.217 -999 -999 -999 -999 -999
2007-01-31 10:39 51°15.551 2°47.149 -999 -999 -999 -999 -999
2007-01-31 10:40 51°15.531 2°47.087 -999 -999 -999 -999 -999
2007-01-31 10:41 51°15.512 2°47.026 -999 -999 -999 -999 -999
2007-01-31 10:42 51°15.492 2°46.964 -999 -999 -999 -999 -999
2007-01-31 10:43 51°15.473 2°46.902 -999 -999 -999 -999 -999
2007-01-31 10:44 51°15.458 2°46.84 -999 -999 -999 -999 -999
2007-01-31 10:45 51°15.465 2°46.783 -999 -999 -999 -999 -999
2007-01-31 10:46 51°15.497 2°46.776 -999 -999 -999 -999 -999
2007-01-31 10:47 51°15.529 2°46.814 -999 -999 -999 -999 -999
2007-01-31 10:48 51°15.553 2°46.863 -999 -999 -999 -999 -999
2007-01-31 10:49 51°15.572 2°46.915 -999 -999 -999 -999 -999
2007-01-31 10:50 51°15.604 2°46.966 -999 -999 -999 -999 -999
2007-01-31 10:51 51°15.652 2°47.07 -999 -999 -999 -999 -999
2007-01-31 10:52 51°15.651 2°47.267 -999 -999 -999 -999 -999
2007-01-31 10:53 51°15.634 2°47.643 -999 -999 -999 -999 -999
2007-01-31 10:54 51°15.614 2°48.041 -999 -999 -999 -999 -999
2007-01-31 10:55 51°15.583 2°48.427 -999 -999 -999 -999 -999
2007-01-31 10:56 51°15.548 2°48.804 -999 -999 -999 -999 -999
2007-01-31 10:57 51°15.514 2°49.194 -999 -999 -999 -999 -999
2007-01-31 10:58 51°15.485 2°49.582 -999 -999 -999 -999 -999
2007-01-31 10:59 51°15.459 2°49.97 -999 -999 -999 -999 -999
2007-01-31 11:00 51°15.432 2°50.364 -999 -999 -999 -999 -999
2007-01-31 11:01 51°15.399 2°50.755 -999 -999 -999 -999 -999
2007-01-31 11:02 51°15.37 2°51.146 -999 -999 -999 -999 -999
2007-01-31 11:03 51°15.34 2°51.532 -999 -999 -999 -999 -999
2007-01-31 11:04 51°15.294 2°51.913 -999 -999 -999 -999 -999
2007-01-31 11:05 51°15.198 2°52.26 -999 -999 -999 -999 -999
2007-01-31 11:06 51°15.109 2°52.618 -999 -999 -999 -999 -999
2007-01-31 11:07 51°15.018 2°52.968 -999 -999 -999 -999 -999
2007-01-31 11:08 51°14.923 2°53.309 -999 -999 -999 -999 -999
2007-01-31 11:09 51°14.826 2°53.65 -999 -999 -999 -999 -999
2007-01-31 11:10 51°14.733 2°53.988 -999 -999 -999 -999 -999
2007-01-31 11:11 51°14.639 2°54.333 -999 -999 -999 -999 -999
2007-01-31 11:12 51°14.529 2°54.67 -999 -999 -999 -999 -999
2007-01-31 11:13 51°14.406 2°54.997 -999 -999 -999 -999 -999
2007-01-31 11:14 51°14.269 2°55.27 -999 -999 -999 -999 -999
2007-01-31 11:15 51°14.117 2°55.427 -999 -999 -999 -999 -999
2007-01-31 11:16 51°13.997 2°55.516 -999 -999 -999 -999 -999
2007-01-31 11:17 51°13.891 2°55.599 -999 -999 -999 -999 -999
2007-01-31 11:18 51°13.79 2°55.689 -999 -999 -999 -999 -999
2007-01-31 11:19 51°13.703 2°55.811 -999 -999 -999 -999 -999
2007-01-31 11:20 51°13.645 2°55.945 -999 -999 -999 -999 -999
2007-01-31 11:21 51°13.606 2°56.048 -999 -999 -999 -999 -999
2007-01-31 11:22 51°13.598 2°56.091 -999 -999 -999 -999 -999
2007-01-31 11:23 51°13.597 2°56.095 -999 -999 -999 -999 -999
2007-01-31 11:24 51°13.598 2°56.096 -999 -999 -999 -999 -999
2007-01-31 11:25 51°13.598 2°56.095 -999 -999 -999 -999 -999
2007-01-31 11:26 51°13.597 2°56.094 -999 -999 -999 -999 -999
2007-01-31 11:27 51°13.598 2°56.095 -999 -999 -999 -999 -999
2007-01-31 11:28 51°13.597 2°56.095 -999 -999 -999 -999 -999
2007-01-31 11:29 51°13.597 2°56.095 -999 -999 -999 -999 -999
2007-01-31 11:30 51°13.597 2°56.094 -999 -999 -999 -999 -999
2007-01-31 11:31 51°13.598 2°56.094 -999 -999 -999 -999 -999
2007-01-31 11:32 51°13.597 2°56.095 -999 -999 -999 -999 -999
2007-01-31 11:33 51°13.597 2°56.095 -999 -999 -999 -999 -999
2007-01-31 11:34 51°13.598 2°56.095 -999 -999 -999 -999 -999
2007-01-31 11:35 51°13.598 2°56.095 -999 -999 -999 -999 -999
2007-01-31 11:36 51°13.593 2°56.093 -999 -999 -999 -999 -999
2007-01-31 11:37 51°13.594 2°56.093 -999 -999 -999 -999 -999
2007-01-31 11:38 51°13.595 2°56.094 -999 -999 -999 -999 -999
2007-01-31 11:39 51°13.596 2°56.094 -999 -999 -999 -999 -999
2007-01-31 11:40 51°13.597 2°56.094 -999 -999 -999 -999 -999
2007-01-31 11:41 51°13.598 2°56.094 -999 -999 -999 -999 -999
2007-01-31 11:42 51°13.599 2°56.095 -999 -999 -999 -999 -999
2007-01-31 11:43 51°13.598 2°56.095 -999 -999 -999 -999 -999
2007-01-31 11:44 51°13.598 2°56.095 -999 -999 -999 -999 -999
2007-01-31 11:45 51°13.598 2°56.095 -999 -999 -999 -999 -999
2007-01-31 11:46 51°13.599 2°56.095 -999 -999 -999 -999 -999
2007-01-31 11:47 51°13.6 2°56.095 -999 -999 -999 -999 -999
2007-01-31 11:48 51°13.6 2°56.095 -999 -999 -999 -999 -999
2007-01-31 11:49 51°13.6 2°56.096 -999 -999 -999 -999 -999
2007-01-31 11:50 51°13.601 2°56.096 -999 -999 -999 -999 -999
2007-01-31 11:51 51°13.601 2°56.096 -999 -999 -999 -999 -999
2007-01-31 11:52 51°13.6 2°56.096 -999 -999 -999 -999 -999
2007-01-31 11:53 51°13.598 2°56.096 -999 -999 -999 -999 -999
2007-01-31 11:54 51°13.602 2°56.096 -999 -999 -999 -999 -999
2007-01-31 11:55 51°13.601 2°56.096 -999 -999 -999 -999 -999
2007-01-31 11:56 51°13.601 2°56.096 -999 -999 -999 -999 -999
2007-01-31 11:57 51°13.601 2°56.097 -999 -999 -999 -999 -999
2007-01-31 11:58 51°13.601 2°56.097 -999 -999 -999 -999 -999
2007-01-31 11:59 51°13.601 2°56.097 -999 -999 -999 -999 -999
2007-01-31 12:00 51°13.6 2°56.096 -999 -999 -999 -999 -999
2007-01-31 12:01 51°13.601 2°56.096 -999 -999 -999 -999 -999
2007-01-31 12:02 51°13.601 2°56.096 -999 -999 -999 -999 -999
2007-01-31 12:03 51°13.601 2°56.095 -999 -999 -999 -999 -999
2007-01-31 12:04 51°13.6 2°56.094 -999 -999 -999 -999 -999
2007-01-31 12:05 51°13.599 2°56.094 -999 -999 -999 -999 -999
2007-01-31 12:06 51°13.599 2°56.094 -999 -999 -999 -999 -999
2007-01-31 12:07 51°13.599 2°56.094 -999 -999 -999 -999 -999
2007-01-31 12:08 51°13.599 2°56.095 -999 -999 -999 -999 -999
2007-01-31 12:09 51°13.598 2°56.095 -999 -999 -999 -999 -999
2007-01-31 12:10 51°13.598 2°56.095 -999 -999 -999 -999 -999
2007-01-31 12:11 51°13.598 2°56.095 -999 -999 -999 -999 -999
2007-01-31 12:12 51°13.598 2°56.095 -999 -999 -999 -999 -999
2007-01-31 12:13 51°13.598 2°56.094 -999 -999 -999 -999 -999
2007-01-31 12:14 51°13.598 2°56.095 -999 -999 -999 -999 -999
2007-01-31 12:15 51°13.598 2°56.095 -999 -999 -999 -999 -999
2007-01-31 12:16 51°13.597 2°56.095 -999 -999 -999 -999 -999
2007-01-31 12:17 51°13.598 2°56.095 -999 -999 -999 -999 -999
2007-01-31 12:18 51°13.597 2°56.095 -999 -999 -999 -999 -999
2007-01-31 12:19 51°13.597 2°56.095 -999 -999 -999 -999 -999
2007-01-31 12:20 51°13.597 2°56.095 -999 -999 -999 -999 -999
2007-01-31 12:21 51°13.598 2°56.095 -999 -999 -999 -999 -999
2007-01-31 12:22 51°13.597 2°56.096 -999 -999 -999 -999 -999
2007-01-31 12:23 51°13.597 2°56.095 -999 -999 -999 -999 -999
2007-01-31 12:24 51°13.597 2°56.095 -999 -999 -999 -999 -999
2007-01-31 12:25 51°13.597 2°56.095 -999 -999 -999 -999 -999
2007-01-31 12:26 51°13.597 2°56.095 -999 -999 -999 -999 -999
2007-01-31 12:27 51°13.598 2°56.095 -999 -999 -999 -999 -999
2007-01-31 12:28 51°13.599 2°56.096 -999 -999 -999 -999 -999
2007-01-31 12:29 51°13.599 2°56.095 -999 -999 -999 -999 -999
2007-01-31 12:30 51°13.599 2°56.095 -999 -999 -999 -999 -999
2007-01-31 12:31 51°13.599 2°56.094 -999 -999 -999 -999 -999
2007-01-31 12:32 51°13.598 2°56.095 -999 -999 -999 -999 -999
2007-01-31 12:33 51°13.598 2°56.095 -999 -999 -999 -999 -999
2007-01-31 12:34 51°13.598 2°56.095 -999 -999 -999 -999 -999
2007-01-31 12:35 51°13.598 2°56.095 -999 -999 -999 -999 -999
2007-01-31 12:36 51°13.598 2°56.096 -999 -999 -999 -999 -999
2007-01-31 12:37 51°13.599 2°56.096 -999 -999 -999 -999 -999
2007-01-31 12:38 51°13.599 2°56.097 -999 -999 -999 -999 -999
2007-01-31 12:39 51°13.599 2°56.096 -999 -999 -999 -999 -999
2007-01-31 12:40 51°13.599 2°56.096 -999 -999 -999 -999 -999
2007-01-31 12:41 51°13.599 2°56.096 -999 -999 -999 -999 -999
2007-01-31 12:42 51°13.599 2°56.096 -999 -999 -999 -999 -999
2007-01-31 12:43 51°13.598 2°56.096 -999 -999 -999 -999 -999
2007-01-31 12:44 51°13.598 2°56.097 -999 -999 -999 -999 -999
2007-01-31 12:45 51°13.61 2°56.062 -999 -999 -999 -999 -999
2007-01-31 12:46 51°13.647 2°55.946 -999 -999 -999 -999 -999
2007-01-31 12:47 51°13.689 2°55.824 -999 -999 -999 -999 -999
2007-01-31 12:48 51°13.707 2°55.745 -999 -999 -999 -999 -999
2007-01-31 12:49 51°13.715 2°55.746 -999 -999 -999 -999 -999
2007-01-31 12:50 51°13.709 2°55.733 -999 -999 -999 -999 -999
2007-01-31 12:51 51°13.717 2°55.731 -999 -999 -999 -999 -999
2007-01-31 12:52 51°13.772 2°55.693 -999 -999 -999 -999 -999
2007-01-31 12:53 51°13.87 2°55.612 -999 -999 -999 -999 -999
2007-01-31 12:54 51°13.984 2°55.526 -999 -999 -999 -999 -999
2007-01-31 12:55 51°14.1 2°55.44 -999 -999 -999 -999 -999
2007-01-31 12:56 51°14.208 2°55.332 -999 -999 -999 -999 -999
2007-01-31 12:57 51°14.308 2°55.178 -999 -999 -999 -999 -999
2007-01-31 12:58 51°14.429 2°54.971 -999 -999 -999 -999 -999
2007-01-31 12:59 51°14.562 2°54.758 -999 -999 -999 -999 -999
2007-01-31 13:00 51°14.654 2°54.513 -999 -999 -999 -999 -999
2007-01-31 13:01 51°14.698 2°54.236 -999 -999 -999 -999 -999
2007-01-31 13:02 51°14.742 2°53.959 -999 -999 -999 -999 -999
2007-01-31 13:03 51°14.778 2°53.674 -999 -999 -999 -999 -999
2007-01-31 13:04 51°14.82 2°53.387 -999 -999 -999 -999 -999
2007-01-31 13:05 51°14.865 2°53.101 -999 -999 -999 -999 -999
2007-01-31 13:06 51°14.908 2°52.818 -999 -999 -999 -999 -999
2007-01-31 13:07 51°14.954 2°52.533 -999 -999 -999 -999 -999
2007-01-31 13:08 51°15 2°52.25 -999 -999 -999 -999 -999
2007-01-31 13:09 51°15.045 2°51.97 -999 -999 -999 -999 -999
2007-01-31 13:10 51°15.092 2°51.686 -999 -999 -999 -999 -999
2007-01-31 13:11 51°15.139 2°51.404 -999 -999 -999 -999 -999
2007-01-31 13:12 51°15.188 2°51.122 -999 -999 -999 -999 -999
2007-01-31 13:13 51°15.234 2°50.839 -999 -999 -999 -999 -999
2007-01-31 13:14 51°15.281 2°50.557 -999 -999 -999 -999 -999
2007-01-31 13:15 51°15.328 2°50.275 -999 -999 -999 -999 -999
2007-01-31 13:16 51°15.375 2°49.992 -999 -999 -999 -999 -999
2007-01-31 13:17 51°15.422 2°49.71 -999 -999 -999 -999 -999
2007-01-31 13:18 51°15.468 2°49.425 -999 -999 -999 -999 -999
2007-01-31 13:19 51°15.514 2°49.14 -999 -999 -999 -999 -999
2007-01-31 13:20 51°15.561 2°48.861 -999 -999 -999 -999 -999
2007-01-31 13:21 51°15.607 2°48.575 -999 -999 -999 -999 -999
2007-01-31 13:22 51°15.654 2°48.288 -999 -999 -999 -999 -999
2007-01-31 13:23 51°15.702 2°48.014 -999 -999 -999 -999 -999
2007-01-31 13:24 51°15.733 2°47.839 -999 -999 -999 -999 -999
2007-01-31 13:25 51°15.741 2°47.815 -999 -999 -999 -999 -999
2007-01-31 13:26 51°15.752 2°47.841 -999 -999 -999 -999 -999
2007-01-31 13:27 51°15.769 2°47.879 -999 -999 -999 -999 -999
2007-01-31 13:28 51°15.788 2°47.914 -999 -999 -999 -999 -999
2007-01-31 13:29 51°15.806 2°47.948 -999 -999 -999 -999 -999
2007-01-31 13:30 51°15.822 2°47.983 -999 -999 -999 -999 -999
2007-01-31 13:31 51°15.836 2°48.021 -999 -999 -999 -999 -999
2007-01-31 13:32 51°15.846 2°48.058 -999 -999 -999 -999 -999
2007-01-31 13:33 51°15.854 2°48.094 -999 -999 -999 -999 -999
2007-01-31 13:34 51°15.865 2°48.129 -999 -999 -999 -999 -999
2007-01-31 13:35 51°15.875 2°48.164 -999 -999 -999 -999 -999
2007-01-31 13:36 51°15.883 2°48.198 -999 -999 -999 -999 -999
2007-01-31 13:37 51°15.893 2°48.232 -999 -999 -999 -999 -999
2007-01-31 13:38 51°15.902 2°48.267 -999 -999 -999 -999 -999
2007-01-31 13:39 51°15.91 2°48.304 -999 -999 -999 -999 -999
2007-01-31 13:40 51°15.918 2°48.338 -999 -999 -999 -999 -999
2007-01-31 13:41 51°15.927 2°48.37 -999 -999 -999 -999 -999
2007-01-31 13:42 51°15.935 2°48.401 -999 -999 -999 -999 -999
2007-01-31 13:43 51°15.944 2°48.436 -999 -999 -999 -999 -999
2007-01-31 13:44 51°15.951 2°48.47 -999 -999 -999 -999 -999
2007-01-31 13:45 51°15.96 2°48.504 -999 -999 -999 -999 -999
2007-01-31 13:46 51°15.967 2°48.539 -999 -999 -999 -999 -999
2007-01-31 13:47 51°15.975 2°48.575 -999 -999 -999 -999 -999
2007-01-31 13:48 51°15.983 2°48.61 -999 -999 -999 -999 -999
2007-01-31 13:49 51°15.988 2°48.644 -999 -999 -999 -999 -999
2007-01-31 13:50 51°15.993 2°48.678 -999 -999 -999 -999 -999
2007-01-31 13:51 51°15.998 2°48.71 -999 -999 -999 -999 -999
2007-01-31 13:52 51°16.002 2°48.741 -999 -999 -999 -999 -999
2007-01-31 13:53 51°16.007 2°48.771 -999 -999 -999 -999 -999
2007-01-31 13:54 51°15.996 2°48.801 -999 -999 -999 -999 -999
2007-01-31 13:55 51°15.944 2°48.703 -999 -999 -999 -999 -999
2007-01-31 13:56 51°15.921 2°48.461 -999 -999 -999 -999 -999
2007-01-31 13:57 51°15.908 2°48.335 -999 -999 -999 -999 -999
2007-01-31 13:58 51°15.906 2°48.335 -999 -999 -999 -999 -999
2007-01-31 13:59 51°15.895 2°48.363 -999 -999 -999 -999 -999
2007-01-31 14:00 51°15.834 2°48.338 -999 -999 -999 -999 -999
2007-01-31 14:01 51°15.821 2°48.242 -999 -999 -999 -999 -999
2007-01-31 14:02 51°15.809 2°48.152 -999 -999 -999 -999 -999
2007-01-31 14:03 51°15.785 2°48.078 -999 -999 -999 -999 -999
2007-01-31 14:04 51°15.751 2°47.989 -999 -999 -999 -999 -999
2007-01-31 14:05 51°15.737 2°47.895 -999 -999 -999 -999 -999
2007-01-31 14:06 51°15.726 2°47.811 -999 -999 -999 -999 -999
2007-01-31 14:07 51°15.712 2°47.728 -999 -999 -999 -999 -999
2007-01-31 14:08 51°15.699 2°47.65 -999 -999 -999 -999 -999
2007-01-31 14:09 51°15.674 2°47.556 -999 -999 -999 -999 -999
2007-01-31 14:10 51°15.648 2°47.464 -999 -999 -999 -999 -999
2007-01-31 14:11 51°15.619 2°47.37 -999 -999 -999 -999 -999
2007-01-31 14:12 51°15.586 2°47.291 -999 -999 -999 -999 -999
2007-01-31 14:13 51°15.552 2°47.22 -999 -999 -999 -999 -999
2007-01-31 14:14 51°15.521 2°47.156 -999 -999 -999 -999 -999
2007-01-31 14:15 51°15.49 2°47.088 -999 -999 -999 -999 -999
2007-01-31 14:16 51°15.46 2°47.018 -999 -999 -999 -999 -999
2007-01-31 14:17 51°15.436 2°46.937 -999 -999 -999 -999 -999
2007-01-31 14:18 51°15.414 2°46.851 -999 -999 -999 -999 -999
2007-01-31 14:19 51°15.393 2°46.771 -999 -999 -999 -999 -999
2007-01-31 14:20 51°15.366 2°46.693 -999 -999 -999 -999 -999
2007-01-31 14:21 51°15.34 2°46.623 -999 -999 -999 -999 -999
2007-01-31 14:22 51°15.318 2°46.546 -999 -999 -999 -999 -999
2007-01-31 14:23 51°15.293 2°46.469 -999 -999 -999 -999 -999
2007-01-31 14:24 51°15.269 2°46.391 -999 -999 -999 -999 -999
2007-01-31 14:25 51°15.243 2°46.307 -999 -999 -999 -999 -999
2007-01-31 14:26 51°15.216 2°46.236 -999 -999 -999 -999 -999
2007-01-31 14:27 51°15.192 2°46.176 -999 -999 -999 -999 -999
2007-01-31 14:28 51°15.169 2°46.103 -999 -999 -999 -999 -999
2007-01-31 14:29 51°15.141 2°46.032 -999 -999 -999 -999 -999
2007-01-31 14:30 51°15.133 2°45.959 -999 -999 -999 -999 -999
2007-01-31 14:31 51°15.155 2°45.916 -999 -999 -999 -999 -999
2007-01-31 14:32 51°15.19 2°45.88 -999 -999 -999 -999 -999
2007-01-31 14:33 51°15.243 2°45.878 -999 -999 -999 -999 -999
2007-01-31 14:34 51°15.282 2°45.893 -999 -999 -999 -999 -999
2007-01-31 14:35 51°15.308 2°45.906 -999 -999 -999 -999 -999
2007-01-31 14:36 51°15.326 2°45.918 -999 -999 -999 -999 -999
2007-01-31 14:37 51°15.339 2°45.933 -999 -999 -999 -999 -999
2007-01-31 14:38 51°15.349 2°45.955 -999 -999 -999 -999 -999
2007-01-31 14:39 51°15.359 2°45.977 -999 -999 -999 -999 -999
2007-01-31 14:40 51°15.393 2°46.002 -999 -999 -999 -999 -999
2007-01-31 14:41 51°15.423 2°46.092 -999 -999 -999 -999 -999
2007-01-31 14:42 51°15.429 2°46.23 -999 -999 -999 -999 -999
2007-01-31 14:43 51°15.438 2°46.384 -999 -999 -999 -999 -999
2007-01-31 14:44 51°15.447 2°46.544 -999 -999 -999 -999 -999
2007-01-31 14:45 51°15.453 2°46.705 -999 -999 -999 -999 -999
2007-01-31 14:46 51°15.45 2°46.866 -999 -999 -999 -999 -999
2007-01-31 14:47 51°15.451 2°47.028 -999 -999 -999 -999 -999
2007-01-31 14:48 51°15.452 2°47.188 -999 -999 -999 -999 -999
2007-01-31 14:49 51°15.454 2°47.38 -999 -999 -999 -999 -999
2007-01-31 14:50 51°15.457 2°47.624 -999 -999 -999 -999 -999
2007-01-31 14:51 51°15.459 2°47.878 -999 -999 -999 -999 -999
2007-01-31 14:52 51°15.462 2°48.133 -999 -999 -999 -999 -999
2007-01-31 14:53 51°15.461 2°48.39 -999 -999 -999 -999 -999
2007-01-31 14:54 51°15.46 2°48.646 -999 -999 -999 -999 -999
2007-01-31 14:55 51°15.457 2°48.901 -999 -999 -999 -999 -999
2007-01-31 14:56 51°15.432 2°49.152 -999 -999 -999 -999 -999
2007-01-31 14:57 51°15.388 2°49.397 -999 -999 -999 -999 -999
2007-01-31 14:58 51°15.348 2°49.643 -999 -999 -999 -999 -999
2007-01-31 14:59 51°15.312 2°49.891 -999 -999 -999 -999 -999
2007-01-31 15:00 51°15.272 2°50.155 -999 -999 -999 -999 -999
2007-01-31 15:01 51°15.223 2°50.487 -999 -999 -999 -999 -999
2007-01-31 15:02 51°15.179 2°50.769 -999 -999 -999 -999 -999
2007-01-31 15:03 51°15.147 2°50.978 -999 -999 -999 -999 -999
2007-01-31 15:04 51°15.119 2°51.141 -999 -999 -999 -999 -999
2007-01-31 15:05 51°15.093 2°51.299 -999 -999 -999 -999 -999
2007-01-31 15:06 51°15.061 2°51.54 -999 -999 -999 -999 -999
2007-01-31 15:07 51°15.043 2°51.82 -999 -999 -999 -999 -999
2007-01-31 15:08 51°15.025 2°52.104 -999 -999 -999 -999 -999
2007-01-31 15:09 51°15.005 2°52.386 -999 -999 -999 -999 -999
2007-01-31 15:10 51°14.977 2°52.645 -999 -999 -999 -999 -999
2007-01-31 15:11 51°14.943 2°52.826 -999 -999 -999 -999 -999
2007-01-31 15:12 51°14.886 2°52.961 -999 -999 -999 -999 -999
2007-01-31 15:13 51°14.817 2°53.116 -999 -999 -999 -999 -999
2007-01-31 15:14 51°14.731 2°53.318 -999 -999 -999 -999 -999
2007-01-31 15:15 51°14.64 2°53.571 -999 -999 -999 -999 -999
2007-01-31 15:16 51°14.581 2°53.866 -999 -999 -999 -999 -999
2007-01-31 15:17 51°14.522 2°54.161 -999 -999 -999 -999 -999
2007-01-31 15:18 51°14.469 2°54.455 -999 -999 -999 -999 -999
2007-01-31 15:19 51°14.424 2°54.754 -999 -999 -999 -999 -999
2007-01-31 15:20 51°14.363 2°55.052 -999 -999 -999 -999 -999
2007-01-31 15:21 51°14.243 2°55.289 -999 -999 -999 -999 -999
2007-01-31 15:22 51°14.123 2°55.402 -999 -999 -999 -999 -999
2007-01-31 15:23 51°14.004 2°55.498 -999 -999 -999 -999 -999
2007-01-31 15:24 51°13.872 2°55.603 -999 -999 -999 -999 -999
2007-01-31 15:25 51°13.755 2°55.718 -999 -999 -999 -999 -999
2007-01-31 15:26 51°13.684 2°55.838 -999 -999 -999 -999 -999
2007-01-31 15:27 51°13.635 2°55.953 -999 -999 -999 -999 -999
2007-01-31 15:28 51°13.607 2°56.05 -999 -999 -999 -999 -999
2007-01-31 15:29 51°13.599 2°56.092 -999 -999 -999 -999 -999